Temperature
7 7 7 7 7 7 7 7 7 7 7 8 8 8 8 8 8 8 8 8 8 8 8 8 8 7 7 7 7 6 6 6 5 5 5 5 4 4 3 3 2 2 2
6 6 6 6 6 6 6 6 6 6 6 6 7 7 7 7 7 7 7 8 7 7 7 7 7 7 6 6 6 5 5 5 5 4 4 4 3 3 2 2 2 1 1
5 5 5 5 5 5 5 5 5 5 5 6 6 6 6 6 6 6 6 6 6 6 6 6 6 5 5 5 5 5 4 4 3 3 3 3 2 2 1 1 1 1 1
4 4 4 4 4 4 4 4 5 5 5 5 5 5 5 5 5 5 5 5 5 5 5 5 4 4 4 4 3 3 3 3 2 2 2 2 1 1 1 1 0 0 -0
3 3 3 3 3 3 3 4 4 4 4 4 4 4 4 5 4 4 4 4 4 3 3 3 3 2 2 2 2 2 1 1 1 1 1 1 1 0 0 -0 -1 -1 -2
2 3 3 3 2 2 2 3 3 3 3 3 3 3 3 3 3 3 3 3 2 2 2 1 1 1 1 0 0 0 0 0 0 0 -0 -0 -1 -1 -1 -2 -2 -3 -3
2 2 2 2 2 2 2 2 2 2 2 2 2 2 2 2 2 2 1 1 1 1 0 0 -0 -0 -0 -0 -0 -0 -0 -1 -1 -1 -1 -2 -2 -3 -3 -4 -4 -4 -5
1 1 1 1 1 1 1 1 1 1 1 1 1 1 1 1 1 1 1 0 0 0 -0 -0 -1 -1 -1 -1 -1 -1 -2 -2 -2 -2 -3 -3 -4 -4 -5 -5 -5 -6 -6
1 1 1 1 1 1 1 1 1 1 1 1 1 1 1 1 0 0 -0 -0 -1 -1 -1 -1 -2 -2 -2 -2 -2 -3 -3 -3 -4 -4 -5 -5 -5 -6 -6 -6 -6 -7 -6
1 1 1 1 1 1 1 1 1 1 1 0 0 0 -0 -0 -1 -1 -1 -1 -2 -2 -2 -3 -3 -3 -4 -4 -4 -4 -4 -5 -5 -5 -6 -6 -6 -6 -7 -7 -7 -7 -7
2 1 1 1 1 1 1 1 1 0 0 0 -0 -0 -1 -1 -1 -2 -2 -2 -3 -3 -4 -4 -4 -5 -5 -6 -6 -6 -6 -6 -6 -6 -6 -6 -7 -7 -7 -7 -7 -7 -7
2 2 1 1 1 1 1 1 0 0 -0 -0 -0 -1 -1 -2 -2 -3 -3 -4 -4 -4 -5 -5 -6 -6 -6 -7 -7 -7 -7 -7 -7 -7 -7 -7 -7 -7 -7 -7 -8 -8 -7
2 2 1 1 1 1 1 0 0 0 -0 -0 -1 -1 -2 -2 -3 -3 -4 -5 -5 -5 -6 -6 -7 -7 -7 -7 -7 -7 -8 -7 -7 -7 -7 -7 -7 -7 -7 -7 -7 -7 -7
2 2 1 1 1 1 0 0 -0 -0 -0 -1 -1 -2 -2 -3 -3 -4 -4 -5 -5 -6 -6 -7 -7 -7 -7 -7 -8 -8 -8 -8 -8 -8 -8 -8 -8 -8 -8 -7 -7 -7 -7
2 2 2 1 1 1 0 0 -0 -0 -1 -1 -1 -2 -2 -3 -3 -4 -5 -5 -6 -6 -7 -7 -7 -7 -7 -7 -8 -8 -8 -8 -8 -8 -8 -8 -8 -8 -7 -7 -7 -7 -7
2 2 2 1 1 1 0 -0 -0 -1 -1 -1 -1 -2 -2 -3 -4 -4 -5 -6 -6 -7 -7 -7 -7 -7 -7 -7 -8 -8 -8 -8 -8 -8 -8 -8 -8 -8 -7 -7 -8 -7 -7
2 2 2 1 1 1 0 -0 -0 -1 -1 -1 -2 -2 -3 -3 -4 -4 -5 -6 -6 -7 -7 -7 -7 -7 -8 -8 -8 -8 -8 -8 -8 -8 -8 -8 -8 -8 -8 -8 -8 -8 -8
2 2 1 1 1 0 0 -0 -1 -1 -1 -2 -2 -2 -3 -3 -4 -5 -5 -5 -6 -6 -7 -7 -7 -7 -7 -8 -8 -8 -8 -8 -8 -8 -8 -8 -8 -8 -8 -8 -8 -8 -8
2 2 1 1 0 0 -0 -1 -1 -1 -1 -2 -2 -2 -3 -3 -4 -5 -5 -5 -6 -6 -6 -7 -7 -7 -7 -7 -8 -8 -8 -8 -8 -8 -8 -8 -8 -9 -9 -9 -9 -9 -9
2 1 1 0 -0 -0 -1 -1 -1 -1 -2 -2 -2 -3 -3 -3 -4 -4 -5 -5 -6 -6 -6 -6 -6 -7 -7 -7 -7 -7 -7 -7 -8 -8 -8 -8 -8 -9 -9 -9 -9 -9 -9
1 1 0 -0 -1 -1 -1 -1 -1 -2 -2 -2 -2 -3 -3 -3 -4 -4 -5 -5 -5 -6 -6 -6 -6 -7 -7 -7 -7 -7 -7 -7 -8 -8 -8 -8 -8 -9 -9 -9 -9 -9 -9
1 0 -0 -1 -1 -1 -2 -2 -2 -2 -2 -2 -3 -3 -3 -4 -4 -4 -5 -5 -5 -6 -6 -6 -6 -6 -7 -7 -7 -7 -7 -7 -8 -8 -8 -8 -8 -9 -9 -9 -9 -9 -9
0 -0 -1 -1 -2 -2 -2 -2 -2 -2 -2 -3 -3 -3 -3 -4 -4 -4 -5 -5 -5 -5 -6 -6 -6 -6 -7 -7 -8 -8 -8 -8 -8 -8 -9 -9 -9 -9 -9 -9 -9 -9 -9
-0 -1 -1 -2 -2 -2 -3 -3 -3 -3 -3 -3 -3 -3 -4 -4 -4 -4 -5 -5 -5 -5 -6 -6 -6 -6 -7 -7 -7 -8 -8 -8 -8 -8 -9 -9 -9 -9 -9 -9 -9 -9 -9
-1 -1 -2 -2 -3 -3 -3 -3 -3 -3 -3 -3 -3 -4 -4 -4 -4 -5 -5 -5 -5 -5 -6 -6 -6 -7 -7 -7 -7 -8 -8 -8 -9 -9 -9 -9 -9 -9 -9 -9 -9 -9 -9
-1 -2 -2 -3 -3 -3 -3 -3 -3 -3 -3 -3 -4 -4 -4 -4 -5 -5 -5 -5 -5 -5 -6 -6 -6 -7 -7 -7 -7 -8 -8 -8 -9 -9 -9 -10 -10 -9 -9 -9 -9 -9 -9
Wind_Speed
5 5 5 6 6 6 6 7 6 7 7 7 7 7 8 8 8 7 6 6 5 5 4 3 4 3 2 1 1 1 2 3 5 1 2 1 2 5 7 9 11 11 11
4 5 5 5 6 7 7 7 7 7 8 8 8 8 9 9 9 8 8 8 7 7 7 6 5 4 4 3 2 2 1 1 1 2 2 2 2 4 4 5 6 7 6
4 5 5 6 6 6 7 7 7 7 8 8 9 10 10 9 9 9 9 9 9 8 7 7 6 5 5 4 4 3 2 2 2 2 2 2 1 2 3 3 3 3 4
4 5 6 6 6 6 6 7 7 7 8 9 9 9 9 9 9 9 9 9 9 9 9 8 7 6 5 4 4 4 4 3 3 3 2 2 2 2 2 2 2 1 2
4 5 5 5 6 6 6 7 7 8 9 9 9 10 9 8 9 9 9 9 9 9 10 9 9 9 8 6 4 4 4 4 3 3 2 2 2 2 2 2 2 1 1
4 5 4 5 5 6 6 7 8 8 8 9 10 10 10 9 13 14 11 9 9 9 8 8 9 10 11 12 11 9 7 5 4 2 2 2 2 2 2 1 2 1 1
4 4 4 4 5 6 6 7 7 8 8 9 9 9 9 11 15 15 14 9 8 8 7 7 7 8 9 7 9 11 11 11 8 3 3 2 1 1 2 2 2 2 3
4 4 4 4 5 6 6 6 7 6 7 7 7 7 7 9 13 13 12 8 7 7 6 6 6 6 5 6 6 6 6 6 5 3 2 1 2 2 3 3 3 2 3
4 4 4 4 5 5 5 5 5 5 5 5 4 6 6 6 10 11 9 5 5 6 5 5 4 5 8 8 6 5 5 5 7 7 4 3 3 4 4 2 2 1 3
4 4 4 4 5 5 4 4 3 4 4 3 4 4 4 4 7 9 8 3 4 4 4 5 7 6 7 7 4 3 3 3 4 5 6 7 6 7 7 1 4 3 2
5 5 4 4 4 4 4 3 3 3 3 2 2 2 2 3 5 6 6 3 2 2 2 3 4 7 7 7 5 1 4 3 1 3 4 4 4 3 4 3 3 4 5
6 5 5 4 4 4 4 3 3 3 2 1 0 1 2 3 4 4 5 4 3 1 2 3 4 8 8 7 5 5 6 4 2 3 3 3 3 3 4 4 5 6 8
7 6 5 5 4 4 4 4 3 2 2 2 2 1 2 2 3 5 5 5 5 1 2 6 7 8 7 5 6 7 4 2 2 2 3 3 3 4 3 4 5 7 9
7 7 6 5 4 4 4 4 3 3 3 3 2 2 2 2 2 2 2 3 4 4 3 5 7 7 5 5 4 4 3 3 3 3 4 3 3 3 3 3 3 4 4
8 7 6 6 6 5 4 4 4 4 5 4 3 3 3 3 4 5 3 3 3 4 3 1 2 2 3 3 3 3 3 3 3 3 3 4 4 4 4 4 4 4 5
8 7 6 5 5 5 4 2 4 4 4 5 6 5 4 4 5 6 7 7 8 8 3 1 2 3 3 4 4 4 3 3 3 3 4 4 5 5 6 6 6 6 8
9 8 6 6 6 6 5 5 3 3 5 5 5 5 5 5 6 7 7 7 7 6 2 2 3 4 4 4 4 4 4 4 4 4 5 5 5 6 6 7 7 8 9
10 10 9 7 7 6 6 5 5 4 3 3 4 6 7 7 7 7 8 6 3 3 3 4 4 5 5 5 5 5 5 5 5 5 5 6 6 6 7 8 8 9 10
10 8 7 6 6 6 6 5 5 5 4 4 3 4 6 6 6 7 6 2 3 4 4 5 5 5 5 5 5 5 6 6 6 6 6 7 6 6 8 8 9 13 13
9 12 10 7 6 6 5 5 5 5 5 4 4 4 3 3 3 4 3 4 4 5 5 5 5 5 5 6 6 6 6 6 7 7 7 7 7 7 9 10 10 11 11
7 9 13 8 7 7 6 6 6 5 5 5 5 5 7 4 5 5 4 5 5 5 6 6 6 6 6 6 6 7 8 7 7 7 8 8 7 8 9 10 11 11 12
8 7 8 8 7 6 6 6 5 6 6 6 5 5 8 4 4 5 5 5 5 5 5 6 6 6 6 6 7 7 8 9 8 8 8 8 8 9 10 10 11 11 12
7 8 7 7 6 8 7 6 6 6 6 6 5 5 5 5 5 5 6 6 5 5 6 6 6 7 8 10 10 8 9 10 9 9 10 10 10 10 10 12 13 14 14
8 8 8 7 7 6 7 6 6 6 6 6 6 6 6 5 6 6 6 6 6 5 7 8 7 9 11 12 13 13 15 16 15 13 13 13 13 12 12 13 15 16 16
7 7 8 7 7 7 7 7 7 7 7 6 6 6 5 5 6 6 6 6 7 7 8 9 10 11 13 15 16 17 19 22 22 19 15 13 15 15 15 16 16 17 18
7 7 7 7 7 7 7 7 7 7 7 6 6 5 5 6 6 6 6 6 6 7 7 9 12 14 16 17 19 21 22 23 24 25 20 13 15 15 16 16 19 18 19
Wind_Direction
27 28 26 15 12 17 22 17 14 16 17 18 17 20 21 19 16 21 22 21 28 25 23 35 35 32 28 19 7 255 233 217 233 181 111 107 142 160 159 156 170 186 203
37 39 31 24 25 29 27 22 24 28 26 29 31 34 32 29 26 30 34 36 40 40 37 45 42 44 45 34 37 34 25 47 187 191 134 127 136 158 141 147 162 177 189
51 48 38 31 31 32 30 28 32 36 36 37 40 40 36 32 31 34 40 44 44 44 43 45 38 43 44 37 42 43 33 37 58 120 123 106 104 138 132 140 158 160 193
61 57 48 38 37 39 39 39 41 43 44 42 43 43 41 40 38 37 44 49 50 47 46 45 40 41 45 44 46 43 42 47 57 85 97 102 104 104 120 134 152 155 207
72 64 55 49 49 50 49 47 48 49 50 46 47 44 41 44 45 47 48 53 51 50 47 43 42 47 53 59 63 54 51 52 55 61 66 72 84 97 120 128 157 130 228
83 72 64 61 59 57 57 56 56 54 53 53 51 48 47 49 53 57 61 54 51 49 45 38 36 38 44 51 60 60 59 57 50 46 49 60 67 73 92 116 123 120 268
93 84 76 74 70 63 65 63 59 55 55 54 50 48 49 52 56 59 64 62 57 50 45 40 40 37 40 37 43 45 43 46 49 61 63 55 57 96 125 119 159 187 224
103 96 92 89 84 78 73 68 63 61 60 58 52 44 42 52 60 64 67 58 54 45 42 41 38 20 28 46 41 36 29 23 31 61 108 155 176 182 173 178 194 216 254
123 117 107 101 99 93 87 79 72 74 69 59 51 45 40 37 57 64 67 50 47 31 22 26 30 8 23 38 44 30 20 6 21 30 27 347 313 290 241 169 179 216 292
143 130 120 117 117 113 109 100 91 90 88 78 58 39 31 16 47 60 66 55 43 21 10 5 8 11 13 23 53 34 3 334 347 355 355 349 345 333 321 249 185 190 222
144 137 133 133 135 134 129 126 125 120 112 96 68 9 358 4 20 42 55 79 56 29 14 351 335 349 352 350 2 345 303 322 355 338 327 325 331 333 331 319 204 179 194
151 151 152 157 160 152 149 149 150 152 149 162 156 327 332 335 345 2 20 30 63 73 339 304 304 328 336 340 343 318 327 5 7 329 322 321 324 317 311 309 290 249 232
162 168 168 168 170 166 170 174 176 180 184 202 205 230 288 321 339 2 5 359 3 16 296 315 323 328 335 336 325 332 359 8 322 311 302 291 273 270 284 298 295 282 270
176 179 176 172 172 172 178 178 176 183 190 200 208 222 252 282 289 292 308 323 332 323 310 322 337 344 352 342 338 350 348 304 287 271 277 277 279 279 281 281 287 302 296
184 185 183 180 172 173 178 188 185 201 195 194 204 207 211 249 265 284 282 255 262 267 285 294 336 334 336 328 320 311 308 313 316 297 285 289 293 294 293 291 282 289 280
187 189 185 179 178 176 176 193 225 212 212 202 199 202 230 255 286 304 309 310 313 316 336 319 301 301 299 300 302 302 296 290 284 278 277 278 286 291 293 290 283 281 282
191 189 185 183 182 183 186 190 211 244 243 238 238 241 250 274 290 300 302 303 309 327 333 287 281 282 281 282 280 276 276 277 275 273 270 270 272 277 281 284 282 279 277
192 193 190 189 187 188 193 198 200 208 230 258 261 258 262 271 284 295 301 304 299 298 261 267 269 271 271 271 271 271 273 277 272 267 265 264 263 266 272 272 272 270 274
191 191 189 185 186 189 190 192 199 207 216 231 248 269 266 273 282 293 306 276 265 271 268 265 263 264 265 266 266 266 266 269 269 266 264 262 260 260 266 267 268 272 274
193 192 184 183 185 186 188 193 201 207 216 226 235 241 248 248 254 271 269 262 262 265 265 265 265 263 262 263 265 266 268 268 268 264 263 262 258 256 262 266 268 269 269
186 189 187 185 189 190 192 200 204 207 216 227 236 241 242 233 242 253 259 260 257 262 263 264 264 265 262 260 260 262 265 267 264 263 264 263 259 261 263 264 266 266 268
183 184 186 189 189 191 197 201 204 211 219 230 239 250 263 254 246 254 258 263 259 257 255 259 263 261 257 255 258 262 265 267 266 262 263 263 262 264 265 266 267 268 268
183 186 188 188 187 200 204 202 209 215 223 228 235 240 246 246 250 254 259 263 266 267 268 263 264 269 265 262 256 252 261 266 265 263 266 269 268 267 266 266 267 268 268
187 189 190 188 189 196 202 208 214 220 225 231 235 239 242 246 253 260 262 266 269 269 272 270 267 267 270 275 273 266 262 265 267 265 260 262 264 266 265 265 266 265 266
189 189 191 193 196 202 208 213 218 223 228 232 235 240 244 248 256 262 265 267 271 273 275 277 275 274 274 275 276 277 278 279 279 275 267 262 262 261 263 264 266 268 267
192 194 196 196 199 204 209 215 220 223 227 233 235 238 244 251 258 264 268 270 274 277 279 281 278 278 280 283 282 283 285 286 286 286 283 278 274 272 270 271 271 269 271
Height
1493 1493 1492 1491 1490 1489 1488 1487 1486 1485 1484 1483 1482 1481 1480 1478 1478 1477 1476 1475 1474 1474 1473 1472 1471 1471 1470 1469 1469 1468 1467 1467 1466 1465 1466 1466 1467 1469 1470 1472 1475 1478 1480
1490 1489 1489 1488 1487 1486 1485 1484 1483 1482 1481 1480 1479 1478 1476 1475 1474 1473 1472 1472 1471 1469 1468 1467 1466 1466 1465 1464 1463 1462 1462 1462 1461 1461 1461 1461 1463 1464 1466 1468 1470 1472 1475
1487 1486 1486 1485 1484 1483 1483 1482 1481 1480 1479 1478 1477 1475 1474 1473 1472 1471 1470 1469 1468 1466 1465 1464 1463 1462 1461 1460 1459 1458 1458 1457 1457 1457 1457 1458 1460 1461 1462 1464 1466 1468 1469
1484 1483 1483 1482 1482 1481 1481 1480 1479 1478 1477 1476 1475 1474 1472 1471 1470 1469 1467 1466 1465 1464 1463 1462 1461 1460 1459 1458 1457 1456 1455 1455 1455 1455 1455 1456 1457 1458 1459 1461 1462 1463 1464
1481 1481 1481 1480 1480 1479 1479 1478 1478 1477 1476 1475 1474 1472 1471 1470 1469 1467 1466 1465 1464 1463 1461 1460 1459 1459 1458 1457 1456 1455 1454 1454 1454 1454 1454 1454 1455 1455 1456 1457 1458 1458 1459
1479 1479 1479 1479 1478 1478 1478 1477 1476 1476 1475 1474 1473 1472 1471 1469 1469 1467 1466 1465 1464 1463 1461 1460 1459 1459 1458 1457 1456 1455 1454 1454 1453 1453 1452 1453 1453 1453 1453 1454 1454 1454 1455
1478 1478 1478 1478 1477 1477 1477 1477 1477 1476 1475 1474 1473 1472 1471 1470 1469 1468 1467 1466 1464 1463 1462 1461 1460 1459 1458 1457 1455 1454 1453 1452 1452 1451 1451 1451 1451 1450 1450 1450 1450 1450 1450
1477 1477 1477 1477 1477 1477 1478 1477 1477 1477 1476 1475 1474 1473 1472 1471 1470 1469 1468 1466 1465 1464 1462 1461 1460 1458 1457 1455 1454 1453 1452 1450 1449 1449 1448 1448 1448 1447 1447 1447 1447 1446 1446
1477 1477 1477 1478 1478 1478 1478 1478 1478 1478 1477 1476 1475 1474 1473 1472 1471 1469 1468 1466 1465 1463 1462 1460 1459 1457 1455 1453 1452 1451 1450 1448 1447 1446 1446 1445 1445 1444 1444 1443 1443 1442 1441
1477 1477 1478 1478 1479 1479 1479 1479 1479 1478 1478 1477 1476 1475 1474 1472 1471 1469 1468 1466 1464 1463 1461 1459 1457 1455 1454 1452 1450 1449 1447 1446 1445 1444 1443 1442 1442 1441 1441 1440 1440 1439 1438
1477 1477 1478 1479 1479 1479 1479 1479 1479 1478 1478 1477 1476 1475 1474 1472 1470 1469 1467 1465 1463 1461 1459 1457 1455 1454 1452 1450 1448 1447 1445 1444 1442 1441 1440 1440 1439 1438 1438 1438 1437 1437 1436
1477 1477 1478 1479 1479 1479 1479 1479 1479 1478 1478 1477 1476 1474 1473 1471 1469 1467 1465 1463 1461 1459 1457 1455 1453 1452 1450 1448 1446 1445 1443 1442 1440 1439 1438 1437 1436 1436 1435 1435 1434 1433 1432
1476 1477 1478 1478 1479 1479 1479 1479 1478 1477 1477 1476 1474 1473 1471 1470 1468 1466 1464 1461 1459 1457 1455 1453 1451 1449 1447 1446 1444 1442 1441 1439 1438 1437 1436 1435 1434 1433 1432 1431 1430 1429 1427
1475 1476 1476 1477 1477 1478 1478 1477 1477 1476 1475 1474 1473 1471 1469 1467 1465 1463 1461 1459 1457 1455 1452 1450 1449 1447 1445 1443 1442 1440 1439 1437 1436 1434 1433 1432 1431 1430 1428 1427 1425 1423 1421
1473 1474 1474 1475 1476 1476 1476 1476 1475 1474 1473 1472 1471 1469 1467 1465 1463 1461 1458 1456 1454 1452 1450 1448 1446 1444 1443 1441 1439 1438 1436 1435 1433 1432 1430 1429 1427 1426 1424 1422 1420 1418 1416
1470 1471 1472 1473 1473 1474 1474 1474 1473 1472 1471 1470 1468 1466 1464 1462 1460 1458 1456 1453 1451 1449 1447 1445 1443 1441 1439 1438 1436 1434 1433 1431 1430 1428 1426 1425 1423 1421 1419 1417 1415 1413 1410
1466 1468 1469 1469 1470 1471 1471 1471 1470 1470 1468 1467 1465 1463 1461 1459 1457 1455 1453 1450 1448 1446 1444 1442 1440 1438 1436 1435 1433 1431 1429 1428 1426 1424 1422 1420 1418 1416 1414 1411 1409 1407 1404
1462 1464 1465 1466 1467 1467 1468 1468 1467 1466 1465 1464 1462 1460 1458 1456 1454 1452 1449 1447 1445 1443 1441 1439 1437 1435 1433 1431 1429 1427 1425 1423 1422 1420 1417 1415 1413 1411 1408 1405 1403 1400 1397
1457 1459 1460 1462 1463 1463 1464 1464 1463 1463 1461 1460 1459 1457 1455 1453 1451 1449 1446 1444 1442 1440 1438 1435 1433 1431 1429 1427 1425 1423 1420 1418 1417 1414 1412 1410 1408 1405 1402 1399 1396 1394 1391
1451 1453 1455 1457 1458 1459 1459 1459 1459 1459 1458 1456 1455 1453 1451 1449 1447 1445 1443 1440 1438 1436 1434 1431 1429 1427 1425 1422 1420 1418 1415 1413 1411 1409 1406 1404 1401 1398 1395 1392 1389 1386 1383
1445 1447 1449 1451 1452 1453 1454 1455 1455 1454 1453 1452 1451 1449 1447 1445 1443 1441 1439 1437 1434 1432 1430 1427 1425 1423 1420 1418 1415 1413 1410 1407 1405 1402 1400 1397 1394 1391 1388 1385 1382 1378 1375
1438 1440 1442 1444 1446 1448 1449 1449 1450 1449 1449 1448 1446 1445 1443 1441 1439 1437 1435 1433 1430 1428 1425 1423 1420 1418 1416 1413 1410 1407 1404 1401 1399 1396 1392 1389 1386 1383 1380 1377 1373 1370 1367
1432 1434 1436 1438 1440 1441 1443 1444 1444 1444 1444 1443 1442 1440 1438 1437 1435 1432 1430 1428 1426 1423 1421 1418 1415 1413 1410 1407 1404 1401 1397 1394 1392 1388 1385 1381 1378 1375 1372 1368 1365 1361 1358
1425 1427 1429 1431 1433 1435 1437 1438 1439 1439 1438 1438 1437 1435 1434 1432 1430 1428 1426 1423 1421 1419 1416 1413 1410 1407 1404 1401 1398 1395 1391 1388 1384 1381 1378 1374 1370 1366 1363 1359 1355 1351 1348
1419 1421 1423 1425 1427 1429 1431 1432 1433 1433 1433 1432 1431 1430 1429 1427 1425 1423 1421 1418 1416 1413 1411 1408 1404 1401 1398 1395 1391 1388 1385 1381 1378 1374 1370 1366 1361 1357 1354 1349 1345 1341 1337
1414 1416 1418 1420 1422 1423 1425 1426 1427 1428 1428 1427 1426 1425 1424 1422 1420 1418 1416 1413 1410 1407 1405 1402 1399 1395 1391 1388 1385 1381 1378 1374 1371 1367 1363 1359 1354 1349 1345 1341 1336 1331 1327